This is the latest recevied weather packets stored in our database for station/object EA6AMI-5. If no packets are shown the sender has not sent any weather packets the latest 10 day(s).
| Time | Temp. | Humidity | Pressure | Rain* | Wind** | Luminosity | Snow |
|---|---|---|---|---|---|---|---|
| 1787901483 | 25.56° C | 70% | 1016.8 hPa | 0 mm | - | 48 W/m² | - |
| 1787900944 | 25.56° C | 68% | 1016.5 hPa | 0 mm | - | 48 W/m² | - |
| 1787900403 | 25° C | 67% | 1016.7 hPa | 0 mm | - | 55 W/m² | - |
| 1787900043 | 25° C | 67% | 1016.5 hPa | 0 mm | - | 48 W/m² | - |
| 1787899503 | 25.56° C | 61% | 1016.4 hPa | 0 mm | - | 45 W/m² | - |
| 1787898963 | 25° C | 62% | 1017 hPa | 0 mm | - | 32 W/m² | - |
| 1787898423 | 25° C | 60% | 1016.8 hPa | 0 mm | - | 29 W/m² | - |
| 1787897883 | 25° C | 69% | 1016.7 hPa | 0 mm | - | 16 W/m² | - |
| 1787897343 | 25° C | 70% | 1016.2 hPa | 0 mm | - | 20 W/m² | - |
| 1787896803 | 25° C | 70% | 1016.4 hPa | 0 mm | - | 12 W/m² | - |
| 1787896444 | 25° C | 70% | 1016.1 hPa | 0 mm | - | 10 W/m² | - |
| 1787895903 | 25° C | 67% | 1016.1 hPa | 0 mm | - | 9 W/m² | - |
| 1787895363 | 25° C | 67% | 1016.1 hPa | 0 mm | - | 6 W/m² | - |
| 1787894823 | 25° C | 68% | 1015.6 hPa | 0 mm | - | 3 W/m² | - |
| 1787894283 | 25° C | 64% | 1015.7 hPa | 0 mm | - | 1 W/m² | - |
| 1787893743 | 25° C | 65% | 1015.5 hPa | 0 mm | - | 0 W/m² | - |
| 1787893203 | 25° C | 70% | 1015.2 hPa | 0 mm | - | 0 W/m² | - |
| 1787892843 | 25° C | 70% | 1014.8 hPa | 0 mm | - | 0 W/m² | - |
| 1787892303 | 25.56° C | 70% | 1014.8 hPa | 0 mm | - | 0 W/m² | - |
| 1787891763 | 25.56° C | 70% | 1014.9 hPa | 0 mm | - | 0 W/m² | - |
| 1787891223 | 26.11° C | 69% | 1015.1 hPa | 0 mm | - | 0 W/m² | - |
| 1787890683 | 26.67° C | 63% | 1015.1 hPa | 0 mm | - | 0 W/m² | - |
| 1787890144 | 26.67° C | 59% | 1015.3 hPa | 0 mm | - | 0 W/m² | - |
| 1787889603 | 26.67° C | 59% | 1014.8 hPa | 0 mm | - | 0 W/m² | - |
| 1787889243 | 26.67° C | 59% | 1014.9 hPa | 0 mm | - | 0 W/m² | - |
* Rain latest hour (hover to see other rain measurements)
** Current wind speed in m/s (hover to see current wind gust speed)